Tracking 17264 objects as of 2-September-2015
HD Live streaming from Space Station

Track Soyuz TMA-18M
and Space Station

NADEZHDA 3

Track NADEZHDA 3 now!
10-day predictions
NADEZHDA 3 is classified as:


NORAD ID: 21152
Int'l Code: 1991-019A
Perigee: 962.0 km
Apogee: 1,021.5 km
Inclination: 82.9 °
Period: 104.8 minutes
Semi major axis: 7362 km
RCS: 2.4675 m2 (large)
Launch date: March 12, 1991
Source: Commonwealth of Independent States (former USSR) (CIS)
Your satellite tracking list
Your tracking list is empty





NASA's NSSDC Master Catalog

Two Line Element Set (TLE):
1 21152U 91019A   15244.85307103  .00000051  00000-0  38122-4 0  9990
2 21152  82.9307 346.4510 0040409 254.4630 225.7941 13.74187251227084

Source of the keplerian elements: AFSPC

N2YO: 228